Weather in Ust-Uda

Russia / Irkutsk Oblast     54°10′31″N   103°01′58″E
temp.,
°C
wind,
m/s
gust,
m/s
humid.,
%
clouds,
%
prec.,
mm/h
press.,
hPa
HPBL,
m
14 june, mon
mon1423:00+7wsw119686 0.0 101110
02:00+6ssw1196100 0.0 101111
05:00+6s119561 0.0 101015
08:00+10s228383 0.0 1009284
11:00+16sw225480 0.0 10071050
14:00+18sw2445100 0.4 10062075
17:00+14nnw6882100 1.1 1007648
20:00+9nnw3995100 3.6 1010628
15 june, tue
tue1523:00+7nw2796100 0.1 1012331
02:00+5nw3994100 0.1 1014529
05:00+4nw279238 0.0 1015274
08:00+7wnw258058 0.0 1016642
11:00+11wnw355848 0.5 10151519
14:00+13wnw355598 1.7 10141658
17:00+13wnw455856 1.1 10131167
20:00+11nw377212 1.7 1014391
16 june, wed
wed1623:00+5wnw22935 0.1 101520
02:00+4wnw119593 0.1 101618
05:00+6w1393100 0.0 1015116
08:00+7nnw3588100 1.1 1015819
11:00+6wnw3794100 8.0 1016834
14:00+8nnw2691100 8.4 1015722
17:00+8nnw1396100 1.7 1015258
20:00+8n1299100 3.6 101666
17 june, thu
thu1723:00+8nw0098100 0.0 101611
02:00+6wsw1198100 0.0 101710
05:00+5w009810 0.0 101710
08:00+11sse11874 0.0 1016223
11:00+19nw125215 0.0 1014943
14:00+22ssw0237100 0.0 10112107
17:00+21wsw2337100 0.0 10102115
20:00+17sw1163100 0.0 100915
18 june, fri
fri1823:00+13nnw2375100 0.0 101054
02:00+12ne1195100 0.8 100919
05:00+11ne1196100 0.3 100812
08:00+13se1189100 0.3 1008209
11:00+19sw116386 0.1 10061069
14:00+19wsw1260100 0.1 10051126
17:00+21nw2253100 0.0 10041491
20:00+19n116970 0.0 100431